Jackson, TN

9:33 PM CDT on September 23, 2017 (GMT -0500)
McKellar-Sipes Regional

Weather History for KMKL - February, 2013

Change the Weather History Date:

Thursday, February 21, 2013

  Actual Average Record
Temperature  
Mean Temperature 38 °F 44 °F  
Max Temperature 44 °F 55 °F 76 °F (1996)
Min Temperature 31 °F 33 °F 10 °F (1963)
Degree Days  
Heating Degree Days 27 21  
Month to date heating degree days 475 496  
Since 1 July heating degree days 2544 2745  
Cooling Degree Days 0 0  
Month to date cooling degree days 0 0  
Year to date cooling degree days 4 0  
Moisture  
Dew Point 32 °F    
Average Humidity 70    
Maximum Humidity 92    
Minimum Humidity 48    
Precipitation  
Precipitation 0.76 in 0.15 in 3.13 in (2015)
Month to date precipitation 3.19 3.14  
Year to date precipitation 11.48 7.21  
Snow  
Snow T in - - ()
Month to date snowfall 0.1  
Snow Depth 0.00 in    
Sea Level Pressure  
Sea Level Pressure 29.95 in    
Wind  
Wind Speed 9 mph (East)    
Max Wind Speed 18 mph    
Max Gust Speed 23 mph    
Visibility 8 miles    
Events Rain    
T = Trace of Precipitation, MM = Missing Value Source: NWS Daily Summary

Daily Weather History Graph

Daily Weather History Graph

Search for Another Location

Airport or City:

Trip Planner

Search our weather history database for the weather conditions in past years. The results will help you decide how hot, cold, wet, or windy it might be!

Date:

Astronomy

Feb. 21, 2013 Rise Set
Actual Time 6:35 AM CST 5:43 PM CST
Civil Twilight 6:09 AM CST 6:09 PM CST
Nautical Twilight 5:39 AM CST 6:39 PM CST
Astronomical Twilight 5:10 AM CST 7:08 PM CST
Moon 2:03 PM CST (2/21) 3:34 AM CST (2/21)
Length of Visible Light 12h 00m
Length of Day
11h 08m
Waxing Gibbous, 84% of the Moon is Illuminated
Feb 21
Waxing Gibbous
Feb 25
Full
Mar 4
Last Quarter
Mar 11
New
Mar 19
First Quarter

Hourly Weather History & Observations

Time (CST) Temp. Windchill Dew Point Humidity Pressure Visibility Wind Dir Wind Speed Gust Speed Precip Events Conditions
12:53 AM 33.1 °F 26.9 °F 18.0 °F 54% 30.24 in 10.0 mi ENE 6.9 mph - N/A   Overcast
1:53 AM 33.1 °F 25.5 °F 18.0 °F 54% 30.22 in 10.0 mi ENE 9.2 mph - N/A   Overcast
2:53 AM 33.1 °F 24.4 °F 19.0 °F 56% 30.19 in 10.0 mi ENE 11.5 mph - N/A   Overcast
3:53 AM 32.0 °F 24.2 °F 19.0 °F 59% 30.21 in 10.0 mi East 9.2 mph - N/A   Overcast
5:53 AM 30.9 °F 22.8 °F 19.9 °F 64% 30.16 in 10.0 mi East 9.2 mph - 0.00 in   Overcast
6:53 AM 30.9 °F 22.2 °F 19.9 °F 64% 30.14 in 10.0 mi East 10.4 mph 18.4 mph N/A   Overcast
7:53 AM 32.0 °F 24.2 °F 21.0 °F 64% 30.16 in 10.0 mi ESE 9.2 mph - N/A   Overcast
8:53 AM 32.0 °F 23.6 °F 21.9 °F 66% 30.13 in 10.0 mi East 10.4 mph - 0.00 in   Overcast
9:53 AM 34.0 °F 24.6 °F 21.9 °F 61% 30.08 in 10.0 mi East 13.8 mph - N/A   Overcast
10:53 AM 37.0 °F 28.1 °F 21.9 °F 54% 30.03 in 10.0 mi East 15.0 mph - N/A   Mostly Cloudy
11:53 AM 39.0 °F 32.8 °F 21.9 °F 50% 29.97 in 10.0 mi East 9.2 mph 18.4 mph N/A   Clear
12:53 PM 39.0 °F 34.8 °F 23.0 °F 53% 29.94 in 10.0 mi East 5.8 mph - 0.00 in Rain Light Rain
1:53 PM 36.0 °F 32.1 °F 30.0 °F 79% 29.96 in 4.0 mi NNE 4.6 mph - 0.20 in Rain Rain
2:53 PM 35.1 °F 26.9 °F 30.9 °F 85% 29.88 in 6.0 mi ENE 11.5 mph - 0.23 in Rain Rain
3:53 PM 36.0 °F 27.1 °F 33.1 °F 89% 29.83 in 4.0 mi East 13.8 mph 23.0 mph 0.14 in Rain Light Rain
4:01 PM 35.6 °F 29.9 °F 33.8 °F 93% 29.85 in 4.0 mi ESE 6.9 mph 18.4 mph 0.03 in Rain Rain
4:50 PM 37.4 °F 29.3 °F 35.6 °F 93% 29.83 in 7.0 mi East 12.7 mph - 0.08 in Rain Light Rain
4:53 PM 37.0 °F 30.4 °F 35.1 °F 93% 29.85 in 10.0 mi ESE 9.2 mph - 0.08 in Rain Light Rain
5:53 PM 37.9 °F 32.1 °F 36.0 °F 93% 29.86 in 10.0 mi ESE 8.1 mph - 0.04 in   Overcast
6:37 PM 39.2 °F 33.6 °F 37.4 °F 93% 29.83 in 10.0 mi ESE 8.1 mph - 0.03 in Rain Light Rain
6:53 PM 39.9 °F 34.5 °F 37.9 °F 93% 29.84 in 10.0 mi ESE 8.1 mph - 0.03 in Rain Light Rain
7:09 PM 39.2 °F 33.6 °F 37.4 °F 93% 29.82 in 10.0 mi East 8.1 mph - 0.00 in   Overcast
7:17 PM 41.0 °F 38.0 °F 39.2 °F 93% 29.83 in 10.0 mi East 4.6 mph - 0.01 in Rain Light Rain
7:53 PM 42.1 °F 36.6 °F 39.9 °F 92% 29.81 in 10.0 mi ESE 9.2 mph 16.1 mph 0.01 in   Overcast
8:51 PM 44.6 °F 40.7 °F 41.0 °F 87% 29.79 in 10.0 mi ESE 6.9 mph - N/A   Overcast
9:25 PM 44.6 °F 42.2 °F 42.8 °F 93% 29.83 in 10.0 mi ESE 4.6 mph 16.1 mph N/A   Overcast
9:53 PM 44.1 °F - 43.0 °F 96% 29.85 in 10.0 mi Calm Calm - 0.00 in   Overcast
10:48 PM 42.8 °F - 42.8 °F 100% 29.84 in 2.0 mi Calm Calm - 0.02 in Rain Light Rain
10:53 PM 44.1 °F - 42.1 °F 93% 29.85 in 3.0 mi Calm Calm - 0.02 in Rain Light Rain
11:01 PM 42.8 °F 41.1 °F 42.8 °F 100% 29.84 in 2.5 mi SE 3.5 mph - 0.00 in Rain Light Rain
11:17 PM 44.6 °F 43.1 °F 42.8 °F 93% 29.85 in 5.0 mi West 3.5 mph - 0.00 in Rain Light Rain
11:28 PM 44.6 °F - 44.6 °F 100% 29.86 in 4.0 mi Calm Calm - 0.00 in Rain Light Rain
11:42 PM 44.6 °F - 42.8 °F 93% 29.85 in 2.0 mi Calm Calm - 0.01 in   Overcast